Home   Weather   Santa Marta   Past weeks

Flag for Colombia Past Weather in Santa Marta, Colombia — Yesterday and Last 2 Weeks

Now
86 °F

Passing clouds.


Feels Like: 92 °F
Forecast: N/A
Wind: 9 mph from North

Location: Santa Marta / Simon Bolivar

Current Time: Jan 24, 2017 at 6:16:22 pm

Latest Report: Jan 24, 2017 at 5:00 pm


Visibility: N/A

Pressure: 29.86 "Hg

Humidity: 62%

Dew Point: 72 °F

Location of Santa MartaLocation

Past Weather in Santa Marta — Graph

°F

Santa Marta Temperature Yesterday

Maximum temperature yesterday: 88 °F (at 1:00 pm)
Minimum temperature yesterday: 72 °F (at 6:00 am)
Average temperature yesterday: 82 °F

High & Low Weather Summary for the Past Weeks

 TemperatureHumidityPressure
High91 °F (Jan 10, 2:00 pm)94% (Jan 22, 8:00 am)29.96 "Hg (Jan 22, 8:00 am)
Low70 °F (Jan 11, 7:00 am)39% (Jan 13, 10:00 pm)29.74 "Hg (Jan 10, 3:00 pm)
Average82 °F68%29.84 "Hg
* Reported Jan 9 5:00 pm — Jan 24 5:00 pm, Santa Marta, Weather by CustomWeather, © 2017

Note: Actual official high and low records may vary slightly from our data, if they occured in-between our weather recording intervals... More about our weather records

Advertising

Santa Marta Weather History for the Previous 24 Hours

Scroll right to see more
 ConditionsComfort  
Time TempWeatherWind HumidityBarometerVisibility
5:00 pm
Tue, Jan 24
86 °FPassing clouds.9 mph62%29.86 "HgN/A
3:00 pm88 °FPassing clouds.9 mph62%29.86 "HgN/A
2:00 pm86 °FPassing clouds.14 mph70%29.89 "HgN/A
1:00 pm86 °FPassing clouds.12 mph66%29.89 "HgN/A
12:00 pm86 °FPassing clouds.7 mph62%29.93 "HgN/A
11:00 am84 °FPassing clouds.7 mph70%29.96 "HgN/A
10:00 am84 °FPassing clouds.5 mph58%29.96 "HgN/A
9:00 am81 °FClear.3 mph62%29.95 "HgN/A
8:00 am79 °FClear.No wind65%29.94 "HgN/A
7:00 am70 °FClear.No wind83%29.92 "HgN/A
6:00 am70 °FClear.No wind83%29.90 "HgN/A
11:00 pm
Mon, Jan 23
75 °FClear.No wind69%29.92 "HgN/A
10:00 pm75 °FClear.No wind69%29.91 "HgN/A
9:00 pm77 °FClear.No wind65%29.89 "HgN/A
8:00 pm79 °FClear.6 mph61%29.87 "HgN/A
7:00 pm82 °FClear.3 mph55%29.85 "HgN/A
6:00 pm84 °FPassing clouds.5 mph55%29.84 "HgN/A
Weather by CustomWeather, © 2017

See weather overviewHow to use our weather pages